Home > Weather > Kiritimati > Past weeks

Flag for Kiribati Weather for the Past 2 Weeks in Kiritimati, Christmas Island, Kiribati

Now
86 °F

More clouds than sun.


Feels Like: 97 °F
Forecast: 81 / 86 °F
Wind: 18 mph from East

Location: Christmas / Cassidy

Current Time: Feb 10, 2016 at 5:22:50 PM

Latest Report: Feb 10, 2016 at 4:00 PM


Visibility: N/A

Pressure: 29.65 "Hg

Humidity: 75%

Dew point: 77 °F

Location of KiritimatiLocation

Historic Weather in Kiritimati — Graph

°F

Kiritimati Temperature Yesterday

Maximum temperature yesterday: 90 °F (at 12:00 PM)
Minimum temperature yesterday: 79 °F (at 1:00 AM)
Average temperature yesterday: 83 °F

High & Low Weather Summary for the Past Weeks

 TemperatureHumidityPressure
High90 °F (Feb 5, 12:00 PM)100% (Jan 26, 3:00 PM)29.86 "Hg (Jan 26, 3:00 PM)
Low75 °F (Jan 26, 11:00 PM)62% (Feb 9, 3:00 PM)29.62 "Hg (Feb 5, 2:00 PM)
Average82 °F85%29.76 "Hg
* Reported Jan 26 3:00 PM — Feb 10 3:00 PM, Kiritimati, Weather by CustomWeather, © 2016

Note: Actual official high and low records may vary slightly from our data, if they occured in-between our weather recording intervals... More about our weather records

Advertising

Kiritimati Weather History for the Previous 24 Hours

 ConditionsComfort  
Time TempWeatherWind HumidityBarometerVisibility
3:00 PM
Wed, Feb 10
86 °FBroken clouds.18 mph75%29.65 "HgN/A
2:00 PM84 °FScattered showers. Cloudy.18 mph84%29.68 "HgN/A
1:00 PM84 °FCloudy.9 mph84%29.71 "HgN/A
12:00 PM82 °FMore clouds than sun.14 mph89%29.74 "HgN/A
11:00 AM81 °FMore clouds than sun.9 mph94%29.77 "HgN/A
10:00 AM81 °FMore clouds than sun.12 mph89%29.80 "HgN/A
9:00 AM82 °FBroken clouds.12 mph89%29.77 "HgN/A
4:00 AM82 °FPartly cloudy.12 mph84%29.68 "HgN/A
3:00 AM82 °FPartly cloudy.7 mph89%29.68 "HgN/A
2:00 AM82 °FPartly cloudy.14 mph84%29.71 "HgN/A
1:00 AM82 °FPassing clouds.9 mph79%29.74 "HgN/A
12:00 AM79 °FOvercast.14 mph89%29.80 "HgN/A
11:00 PM
Tue, Feb 9
81 °FPassing clouds.12 mph89%29.74 "HgN/A
10:00 PM81 °FPassing clouds.14 mph94%29.74 "HgN/A
9:00 PM84 °FPartly cloudy.9 mph79%29.74 "HgN/A
8:00 PM84 °FPassing clouds.7 mph79%29.74 "HgN/A
7:00 PM84 °FPassing clouds.13 mph79%29.71 "HgN/A
6:00 PM86 °FPassing clouds.10 mph75%29.68 "HgN/A
5:00 PM86 °FPassing clouds.9 mph75%29.65 "HgN/A
Weather by CustomWeather, © 2016

See weather overviewHow to use our weather pages